Showing default

SWISSCUBE, 35932

Orbit data source: Space-Track

SWISSCUBE, 35932 is a payload satellite owned by EPFL (CH) in SSO that was launched on Wed, 23 Sep 2009 UTC via a PSLV launch vehicle from the Sirharikota (SRI). Payload-class satellites include a variety of spacecraft equipped with specific instruments for various scientific and technological missions. These include communications satellites like Starlink; space stations such as the ISS; scientific satellites like the Hubble; Earth observation satellites from companies like Planet Labs, Umbra, and HawkEye 360; GPS; miniature CubeSats for education and research; and military/defense satellites.

Loading next visibility...
Identifier
35932, 2009-051B
Orbit
SSO
Country
Flag of UnknownUnknown / SWTZ
Related business
Manufacturer
EPFL
Mission
Operational Amateur Imaging
Bus & Motor
CUBESAT 1U, Unknown motor
Mass
1 kg wet, 1 kg dry
Launch date (UTC)
2009-09-23 (16 years ago)
Launch vehicle
PSLV
Launch site
Sirharikota (SRI)
Object type
Payload
Rocket body
Debris
Shape & HBR
Box, 0.1 m
Radar Cross Section
0.015 m², Small (<0.1 m²)

Expand to show TLE details & history
Last TLE update: 22 hours ago

TLE from 22 hours ago
0 SWISSCUBE
1 35932U 09051B   25348.68723126  .00001477  00000-0  30453-3 0  9991
2 35932  98.4143 248.3025 0008072  69.2140 290.9925 14.61964982862198
Epoch: 2025-12-14T16:29Z
TLE epoch observation values (Epoch: 2025-12-14T16:29:36.780Z)
Latitude
-0.00001°
Longitude
-82.69732°
Altitude
687.778 km
Speed
7.514 km/s
True Right ascension
16h 33m 12s
True Declination
0° 00' 00"
Sunlit
Object was in daylight at epoch
Visualization orbit readout
Latitude
Unknown
Longitude
Unknown
Altitude
Unknown
Speed
Unknown
Apparent Right ascension
Unknown
Apparent Declination
Unknown
Sunlit
N/A
Visualization observer readout
Local Sidereal Time
13:21:48
Azimuth
Unknown
Elevation
Unknown
Doppler factor
Unknown
Orbital elements
Apogee altitude
689.625 km
Perigee altitude
678.224 km
Semi-major axis
7,062.062 km
Eccentricity
0.00081
Inclination
98.4143°
RAAN
248.3025°
Arg. of periapsis
69.214°
True anomaly
290.90611°
Mean anomaly
290.9925°
Eccentric anomaly
290.94931°
Mean motion
3.65718 °/min
Orbital period
98.44 mins
BSTAR
0.00030453
Loading maneuver chart data...
Computing Atmospheric mass density...
Loading historical data...
Loading historical data...
Loading historical data...
Loading historical data...
Loading historical data...
Loading historical data...
Loading historical data...
Other satellites on launch #51 in the year 2009 (2009-09-23 UTC)

Documentation

Showing up to 5 results
|